Location: Mauries
(43.6188°N, 0.3322°W)
Time: 23:04:27
(UTC+00:00)

CUBEBUG 2 - Pass Details

Date: 20 May 2026
Orbit: 545 x 628 km, 97.9° (Epoch: 5 June)

Event Time Altitude Azimuth Distance (km) Brightness Sun altitude
Rises 03:33:26 0° 357° (N) 2,723 ? -9.5°
Reaches altitude 10° 03:36:03 10° 338° (NNW) 1,823 ? -9.2°
Maximum altitude 03:38:46 18° 295° (WNW) 1,374 ? -8.8°
Drops below altitude 10° 03:41:28 10° 251° (WSW) 1,820 ? -8.4°
Enters shadow 03:41:33 10° 250° (WSW) 1,842 ? -8.4°
